[[{"header":{"parameterUnit":"m.s-1","parameterCategory":1,"la1":30.2991,"la2":30.254,"lo1":-89.0895,"lo2":-89.0444,"dy":0.0017,"dx":0.0017,"nx":28,"ny":28,"refTime":"2025-03-20T03:00:00:Z","depth":0,"parameterNumber":2,"parameterNumberName":"U-component_of_WINDS"},"data":[0,0,0,0,0,0,0,0,0,0,0,0,0,0,0,0,0,0,0,0,0,0,0,0,0,0,0,0,0,0,0,0,0,0,0,0,0,0,0,0,0,0,0,0,0,0,0,0,0,0,0,0,0,0,0,0,0,0,-0.5467,-0.5467,0,-0.5464,-0.5464,-0.5464,-0.5485,-0.5485,-0.5486,-0.5486,-0.548,-0.5479,-0.5479,0,0,0,0,0,0,0,0,0,0,0,0,0,-0.5487,-0.5487,-0.5467,-0.5467,-0.5467,-0.5464,-0.5464,-0.5464,-0.5485,-0.5485,-0.5486,-0.5487,-0.548,-0.5479,-0.5479,0,0,0,0,0,0,0,0,0,0,0,0,0,-0.5481,-0.5487,-0.5467,-0.5477,-0.5478,-0.5464,-0.5464,-0.5464,-0.5485,-0.5485,-0.5486,-0.5487,-0.5481,-0.548,-0.5479,-0.5454,0,0,-0.5475,-0.5475,0,0,0,0,0,0,0,0,-0.5481,-0.548,-0.5476,-0.5476,-0.5477,-0.5476,-0.5469,-0.5461,-0.5484,-0.5482,-0.5486,-0.5488,-0.5478,-0.5477,-0.5474,-0.5454,-0.5454,-0.5475,-0.5474,-0.5474,-0.5474,0,0,0,0,0,0,0,-0.5482,-0.548,-0.5466,-0.5476,-0.5477,-0.5481,-0.5481,-0.5468,-0.5475,-0.5482,-0.5484,-0.5483,-0.5478,-0.5475,-0.5474,-0.5454,-0.5475,-0.5474,-0.5474,-0.5473,-0.5412,-0.5411,0,0,0,0,0,0,-0.5481,-0.5481,-0.5466,-0.5466,-0.5482,-0.548,-0.548,-0.5475,-0.5475,-0.5476,-0.5483,-0.5484,-0.5477,-0.5476,-0.5474,-0.5445,-0.5474,-0.5473,-0.5472,-0.5413,-0.5412,-0.5411,0,0,0,0,0,0,-0.5481,-0.548,-0.5466,-0.5474,-0.5472,-0.5478,-0.5473,-0.5475,-0.5472,-0.5475,-0.5476,-0.5478,-0.5477,-0.5476,-0.5459,-0.5445,-0.5473,-0.5472,-0.5415,-0.5413,-0.5412,-0.5387,0,0,0,0,0,0,-0.5482,-0.548,-0.5471,-0.5473,-0.5472,-0.5452,-0.5473,-0.5474,-0.5471,-0.5473,-0.5472,-0.5472,-0.5478,-0.5461,-0.5458,-0.5444,-0.5471,-0.5416,-0.5414,-0.5412,-0.5389,-0.5385,-0.5382,0,0,0,0,0,-0.5483,-0.5464,-0.5471,-0.5469,-0.5462,-0.5451,-0.545,-0.5458,-0.5469,-0.546,-0.5463,-0.5472,-0.5448,-0.5459,-0.5456,-0.5442,-0.5417,-0.5414,-0.5412,-0.5391,-0.5386,-0.5382,0,0,0,0,0,0,-0.5459,-0.5464,-0.5472,-0.5454,-0.5452,-0.5455,-0.5444,-0.5453,-0.5447,-0.5449,-0.5458,-0.5458,-0.5439,-0.5439,-0.5452,-0.5418,-0.5434,-0.5431,-0.5419,-0.5414,-0.541,-0.541,-0.547,0,0,0,0,0,-0.5452,-0.5444,-0.5449,-0.5432,-0.5431,-0.5438,-0.5433,-0.544,-0.5438,-0.5437,-0.5438,-0.5435,-0.5426,-0.542,-0.5412,-0.539,-0.5389,-0.5378,-0.5375,-0.5371,-0.5368,-0.5355,-0.535,-0.5404,-0.5404,-0.5404,0,0,-0.5436,-0.5439,-0.5433,-0.5428,-0.5427,-0.5418,-0.5437,-0.5426,-0.5419,-0.5435,-0.5419,-0.542,-0.5417,-0.5397,-0.5388,-0.5396,-0.5354,-0.5369,-0.5366,-0.5365,-0.5352,-0.5347,-0.5343,-0.5402,-0.5403,-0.5403,0,0,-0.5404,-0.5405,-0.5391,-0.539,-0.539,-0.5394,-0.5391,-0.5392,-0.5393,-0.5378,-0.539,-0.5381,-0.5366,-0.5363,-0.536,-0.5326,-0.5335,-0.5324,-0.5303,-0.529,-0.5285,-0.5282,-0.5268,-0.5264,-0.5321,-0.5321,-0.5321,0,-0.5384,-0.5372,-0.5382,-0.5371,-0.5368,-0.5383,-0.5368,-0.5367,-0.5363,-0.536,-0.5369,-0.5351,-0.535,-0.5329,-0.5321,-0.5318,-0.5313,-0.5323,-0.5286,-0.5282,-0.5278,-0.5266,-0.5261,-0.5319,-0.5319,-0.532,-0.532,0,-0.5347,-0.5338,-0.5327,-0.5324,-0.532,-0.5306,-0.5314,-0.5308,-0.5315,-0.5318,-0.5302,-0.5301,-0.5293,-0.5289,-0.5295,-0.5269,-0.5274,-0.5284,-0.53,-0.5272,-0.526,-0.5255,-0.5317,-0.5318,-0.5318,-0.5319,0,0,-0.5298,-0.5302,-0.5298,-0.5296,-0.5297,-0.5289,-0.5276,-0.527,-0.5264,-0.5261,-0.525,-0.5237,-0.5247,-0.5243,-0.5249,-0.5238,-0.5209,-0.5249,-0.5249,-0.5241,-0.5178,-0.5169,-0.5164,-0.5216,-0.5215,-0.5214,-0.5178,0,-0.5265,-0.5245,-0.5254,-0.5231,-0.5223,-0.5237,-0.5226,-0.5224,-0.5227,-0.5219,-0.5221,-0.5212,-0.5226,-0.5224,-0.5213,-0.5215,-0.5197,-0.5218,-0.5203,-0.5202,-0.5202,-0.5158,-0.5148,-0.5114,-0.5174,-0.5173,-0.5172,0,-0.5224,-0.522,-0.5197,-0.5199,-0.5196,-0.5185,-0.518,-0.5172,-0.517,-0.5173,-0.5169,-0.5177,-0.5163,-0.5181,-0.5161,-0.5175,-0.517,-0.5169,-0.5168,-0.5166,-0.5185,-0.5153,-0.5104,-0.5098,-0.5165,-0.5166,-0.5167,0,-0.5189,-0.5178,-0.5163,-0.5161,-0.5163,-0.5156,-0.5156,-0.5155,-0.515,-0.5145,-0.5142,-0.5135,-0.5131,-0.5124,-0.513,-0.5142,-0.5109,-0.5127,-0.5109,-0.5109,-0.51,-0.51,-0.5048,-0.5099,-0.5099,-0.5099,-0.5099,0,-0.515,-0.5135,-0.5147,-0.5138,-0.5121,-0.5131,-0.5114,-0.5116,-0.5115,-0.5105,-0.5117,-0.5107,-0.5116,-0.5107,-0.5111,-0.5093,-0.5092,-0.5092,-0.5093,-0.509,-0.509,-0.5086,-0.5088,-0.5098,-0.5098,-0.5099,-0.5099,0,-0.5108,-0.5116,-0.51,-0.5103,-0.5104,-0.5091,-0.5093,-0.5084,-0.5088,-0.5075,-0.5072,-0.5078,-0.5067,-0.5073,-0.5062,-0.5065,-0.5041,-0.5046,-0.5042,-0.5043,-0.5024,-0.5025,-0.4966,-0.4959,-0.5016,-0.5015,-0.5015,0,-0.5082,-0.5071,-0.5073,-0.5068,-0.5068,-0.5059,-0.5055,-0.5065,-0.5059,-0.5056,-0.5047,-0.5038,-0.5031,-0.5013,-0.5015,-0.5006,-0.501,-0.499,-0.5009,-0.5006,-0.5008,-0.5008,-0.5006,-0.4986,-0.4985,-0.4984,-0.4984,0,-0.5035,-0.5039,-0.5033,-0.5028,-0.5022,-0.5018,-0.5015,-0.501,-0.502,-0.5013,-0.5003,-0.4997,-0.4986,-0.4976,-0.4969,-0.4968,-0.4977,-0.4979,-0.4974,-0.497,-0.4967,-0.4967,-0.503,-0.4979,-0.498,-0.498,-0.498,-0.4981,-0.4999,-0.4989,-0.499,-0.4982,-0.4981,-0.4978,-0.4969,-0.4972,-0.4964,-0.4957,-0.4963,-0.4951,-0.4948,-0.4939,-0.4937,-0.4926,-0.4934,-0.4928,-0.4926,-0.4923,-0.492,-0.497,-0.4925,-0.4925,-0.4926,-0.4926,-0.4926,0,-0.4951,-0.4952,-0.4945,-0.4941,-0.4935,-0.4946,-0.4943,-0.4936,-0.4926,-0.4923,-0.4916,-0.4904,-0.4895,-0.4896,-0.4887,-0.4879,-0.4882,-0.4876,-0.4876,-0.4875,-0.4915,-0.4919,-0.4873,-0.4873,-0.4873,-0.4873,-0.4873,-0.4873,-0.4926,-0.491,-0.4914,-0.4898,-0.4899,-0.4887,-0.4885,-0.4881,-0.4879,-0.4866,-0.4858,-0.486,-0.4859,-0.485,-0.4841,-0.4842,-0.4837,-0.4828,-0.483,-0.4867,-0.4872,-0.4877,-0.4881,-0.4828,-0.4828,-0.4791,-0.4791,-0.4791]},{"header":{"parameterUnit":"m.s-1","parameterCategory":1,"la1":30.2991,"la2":30.254,"lo1":-89.0895,"lo2":-89.0444,"dy":0.0017,"dx":0.0017,"nx":28,"ny":28,"refTime":"2025-03-20T03:00:00:Z","depth":0,"parameterNumber":3,"parameterNumberName":"V-component_of_WINDS"},"data":[0,0,0,0,0,0,0,0,0,0,0,0,0,0,0,0,0,0,0,0,0,0,0,0,0,0,0,0,0,0,0,0,0,0,0,0,0,0,0,0,0,0,0,0,0,0,0,0,0,0,0,0,0,0,0,0,0,0,5.9092,5.9092,0,5.9127,5.9128,5.9128,5.9092,5.909,5.9089,5.9088,5.912,5.9122,5.9124,0,0,0,0,0,0,0,0,0,0,0,0,0,5.899,5.8992,5.9092,5.9092,5.9093,5.9127,5.9128,5.9128,5.9092,5.909,5.9089,5.9087,5.9119,5.9122,5.9124,0,0,0,0,0,0,0,0,0,0,0,0,0,5.9031,5.8993,5.9092,5.9079,5.9078,5.9127,5.9128,5.9128,5.9092,5.909,5.9088,5.9086,5.9118,5.9121,5.9125,5.9186,0,0,5.9135,5.9136,0,0,0,0,0,0,0,0,5.9029,5.9035,5.9081,5.908,5.9079,5.9103,5.9104,5.9148,5.9093,5.9087,5.9088,5.9085,5.9116,5.9119,5.913,5.9188,5.9189,5.9135,5.9137,5.9138,5.9139,0,0,0,0,0,0,0,5.9026,5.9033,5.9106,5.9081,5.9081,5.9071,5.9074,5.9112,5.9112,5.9087,5.9085,5.909,5.9115,5.9127,5.9131,5.919,5.9135,5.9138,5.914,5.9141,5.9302,5.9304,0,0,0,0,0,0,5.9025,5.9031,5.9105,5.9107,5.9048,5.9074,5.9078,5.9097,5.9112,5.9112,5.9091,5.9088,5.9123,5.9127,5.9132,5.9206,5.9138,5.9141,5.9143,5.9299,5.9302,5.9305,0,0,0,0,0,0,5.9023,5.9032,5.9103,5.9068,5.9077,5.9078,5.91,5.9099,5.9111,5.9115,5.9115,5.9104,5.9121,5.9127,5.9174,5.9207,5.9143,5.9146,5.9297,5.93,5.9303,5.9355,0,0,0,0,0,0,5.902,5.9031,5.9055,5.9069,5.9079,5.9146,5.9102,5.9101,5.9118,5.9113,5.9127,5.9127,5.912,5.9169,5.9177,5.921,5.9148,5.9294,5.9298,5.9302,5.9351,5.936,5.9368,0,0,0,0,0,5.9017,5.9067,5.9057,5.9066,5.9109,5.9148,5.9153,5.9145,5.912,5.9144,5.9147,5.9127,5.9202,5.9174,5.9183,5.9217,5.9291,5.9297,5.9302,5.9347,5.9358,5.9368,0,0,0,0,0,0,5.9056,5.9069,5.9057,5.9114,5.9131,5.9142,5.9172,5.9157,5.918,5.9174,5.9162,5.9166,5.9216,5.9221,5.919,5.9279,5.9243,5.925,5.9274,5.9285,5.9293,5.9291,5.9151,0,0,0,0,0,5.9071,5.9103,5.9112,5.9161,5.917,5.917,5.9186,5.9179,5.9195,5.9201,5.9207,5.9222,5.9249,5.9267,5.9292,5.9351,5.9354,5.9379,5.9388,5.9395,5.9402,5.9435,5.9447,5.9322,5.9322,5.9322,0,0,5.9103,5.9114,5.9134,5.917,5.9181,5.9214,5.9176,5.9211,5.9235,5.9205,5.9251,5.9256,5.9272,5.9326,5.935,5.9332,5.9437,5.9402,5.9408,5.941,5.9442,5.9453,5.9464,5.9325,5.9325,5.9324,0,0,5.9178,5.9189,5.9233,5.9246,5.9265,5.9264,5.9275,5.9289,5.9291,5.9337,5.9316,5.9344,5.939,5.9403,5.9416,5.9498,5.948,5.9506,5.9552,5.9585,5.9594,5.9603,5.9633,5.9644,5.9512,5.9512,5.9512,0,5.9215,5.9264,5.9256,5.9294,5.931,5.9287,5.9331,5.9343,5.9369,5.938,5.936,5.942,5.9428,5.9486,5.9506,5.9516,5.9528,5.9504,5.9594,5.9602,5.961,5.9639,5.9651,5.9515,5.9515,5.9515,5.9514,0,5.9309,5.9344,5.9376,5.9404,5.9423,5.9464,5.9461,5.9482,5.9473,5.9475,5.9522,5.9532,5.956,5.9573,5.9563,5.9629,5.9618,5.9596,5.9559,5.9626,5.9653,5.9663,5.952,5.9519,5.9518,5.9517,0,0,5.9409,5.9433,5.9445,5.9459,5.9478,5.9504,5.9544,5.9573,5.9591,5.9609,5.9643,5.9683,5.9664,5.9678,5.967,5.9699,5.9765,5.9674,5.9674,5.9691,5.984,5.9857,5.987,5.9753,5.9755,5.9757,5.9839,0,5.9485,5.9556,5.9551,5.9617,5.9649,5.9628,5.9663,5.9678,5.9681,5.9708,5.971,5.9741,5.9712,5.9721,5.9748,5.9751,5.9795,5.9745,5.9784,5.9785,5.9782,5.9884,5.9901,5.9978,5.9849,5.9851,5.9852,0,5.9584,5.9609,5.9679,5.9696,5.9709,5.9741,5.9767,5.9793,5.9811,5.9811,5.9828,5.9816,5.9855,5.9818,5.9872,5.9839,5.9854,5.9858,5.9861,5.9865,5.9823,5.9891,6.0002,6.0014,5.9868,5.9867,5.9866,0,5.9652,5.9702,5.9751,5.9763,5.9783,5.9806,5.9815,5.9831,5.9849,5.9872,5.9884,5.991,5.9925,5.9945,5.994,5.9913,5.9996,5.9958,5.9998,5.9998,6.0017,6.0016,6.0133,6.0025,6.0025,6.0025,6.0024,0,5.9738,5.9782,5.9782,5.9812,5.9861,5.9854,5.9903,5.9909,5.9923,5.9954,5.9936,5.9965,5.9957,5.9985,5.9981,6.0028,6.0034,6.0035,6.0034,6.0038,6.0038,6.0048,6.0043,6.0028,6.0027,6.0026,6.0026,0,5.9822,5.9824,5.9876,5.9892,5.9897,5.9933,5.9946,5.9974,5.9976,6.0015,6.0024,6.0027,6.006,6.0057,6.0093,6.009,6.0149,6.014,6.0143,6.0142,6.0182,6.0179,6.0311,6.0328,6.0208,6.0209,6.021,0,5.9878,5.9912,5.9933,5.9953,5.9965,5.9997,6.0016,6.0011,6.0031,6.0055,6.008,6.0112,6.0137,6.019,6.0195,6.0223,6.0216,6.026,6.022,6.0223,6.0218,6.0217,6.0221,6.0268,6.027,6.0271,6.0272,0,5.9977,5.9977,6.0006,6.0037,6.0061,6.0084,6.0104,6.0122,6.0118,6.0142,6.0177,6.0196,6.0235,6.0266,6.0293,6.0302,6.0287,6.0284,6.0295,6.03,6.0301,6.0302,6.0166,6.0281,6.028,6.028,6.0279,6.0279,6.005,6.008,6.01,6.0133,6.0149,6.0169,6.0198,6.0204,6.0233,6.0265,6.026,6.0299,6.0316,6.0351,6.0362,6.0392,6.0376,6.0392,6.0396,6.04,6.0406,6.0296,6.0397,6.0397,6.0396,6.0396,6.0396,0,6.0149,6.0162,6.0193,6.0224,6.0251,6.0235,6.0258,6.0281,6.0316,6.0334,6.036,6.0401,6.0432,6.044,6.047,6.0492,6.0486,6.05,6.0499,6.0502,6.0417,6.0406,6.0505,6.0505,6.0505,6.0505,6.0505,6.0505,6.0204,6.0255,6.0257,6.0315,6.0327,6.0367,6.0381,6.04,6.0415,6.0461,6.0488,6.0493,6.0508,6.0539,6.0567,6.0568,6.058,6.0598,6.0597,6.0518,6.0507,6.0497,6.0486,6.06,6.0601,6.0679,6.0679,6.068]}]]